Temperature
5 4 3 3 2 1 0 -1 -2 -4 -3 -2 -2 -3 -3 -3 -4 -4 -5 -5 -5 -5 -5 -5 -6 -5 -5 -5 -5 -5 -5 -5 -5 -4 -4 -4 -3 -3
4 3 3 2 1 1 -0 -1 -2 -4 -5 -4 -4 -4 -5 -5 -5 -5 -6 -6 -6 -6 -6 -6 -6 -6 -6 -6 -6 -5 -5 -5 -5 -5 -4 -4 -4 -3
3 2 2 1 0 -0 -1 -2 -3 -4 -5 -5 -5 -6 -6 -6 -6 -6 -7 -6 -7 -7 -7 -6 -6 -6 -6 -6 -6 -6 -6 -5 -5 -5 -5 -4 -4 -4
2 2 1 0 -0 -1 -2 -3 -4 -5 -6 -7 -7 -7 -7 -7 -7 -7 -7 -7 -7 -7 -7 -7 -7 -6 -6 -6 -6 -6 -6 -6 -5 -5 -5 -5 -5 -5
1 1 -0 -1 -1 -3 -4 -5 -6 -6 -7 -8 -8 -8 -7 -7 -8 -7 -7 -7 -7 -8 -7 -7 -7 -7 -7 -7 -6 -6 -6 -6 -6 -6 -6 -6 -6 -5
1 -0 -1 -2 -3 -4 -5 -6 -7 -8 -8 -8 -8 -8 -8 -8 -8 -8 -8 -8 -8 -8 -8 -8 -7 -7 -7 -7 -7 -7 -7 -7 -7 -6 -6 -6 -6 -6
-0 -1 -2 -3 -4 -6 -6 -7 -7 -8 -8 -8 -9 -9 -9 -8 -8 -8 -9 -9 -9 -8 -8 -8 -7 -7 -6 -6 -6 -7 -7 -7 -7 -6 -6 -6 -6 -6
-1 -2 -3 -4 -5 -6 -7 -7 -8 -8 -8 -9 -9 -9 -9 -9 -9 -9 -9 -9 -9 -8 -8 -8 -8 -7 -6 -7 -7 -7 -7 -7 -7 -6 -6 -6 -6 -5
-2 -3 -4 -5 -6 -7 -8 -8 -8 -9 -9 -9 -9 -9 -9 -9 -9 -9 -9 -9 -9 -9 -9 -9 -8 -8 -7 -8 -8 -7 -7 -7 -7 -6 -6 -6 -6 -5
-3 -5 -6 -7 -7 -8 -8 -9 -9 -9 -9 -9 -9 -9 -9 -9 -9 -9 -9 -9 -9 -8 -8 -9 -9 -8 -8 -7 -7 -7 -6 -7 -7 -7 -6 -6 -6 -6
-5 -6 -7 -8 -8 -8 -8 -9 -9 -9 -9 -9 -9 -9 -9 -8 -9 -9 -9 -9 -9 -9 -8 -9 -9 -9 -9 -7 -6 -6 -7 -7 -6 -6 -6 -5 -5 -5
-6 -6 -7 -8 -8 -9 -9 -9 -9 -9 -9 -9 -8 -8 -8 -8 -8 -9 -9 -10 -10 -10 -9 -9 -10 -11 -10 -8 -7 -6 -6 -5 -5 -5 -5 -4 -5 -6
-8 -7 -8 -8 -9 -9 -9 -9 -9 -9 -9 -9 -9 -8 -7 -7 -7 -8 -9 -10 -10 -10 -9 -10 -10 -11 -11 -11 -8 -6 -6 -5 -5 -4 -4 -4 -5 -6
-9 -9 -9 -9 -9 -9 -9 -9 -9 -9 -9 -9 -9 -8 -8 -8 -8 -8 -8 -8 -9 -9 -8 -9 -10 -11 -11 -11 -10 -8 -6 -6 -6 -5 -5 -5 -6 -6
-9 -9 -9 -9 -9 -9 -9 -9 -9 -9 -9 -9 -9 -8 -8 -8 -8 -8 -8 -8 -8 -7 -8 -8 -9 -10 -10 -11 -10 -9 -9 -7 -6 -6 -7 -7 -7 -6
-9 -9 -9 -9 -9 -9 -9 -9 -9 -9 -9 -9 -9 -8 -8 -8 -8 -8 -8 -9 -9 -7 -6 -8 -9 -9 -10 -10 -10 -9 -9 -8 -7 -7 -7 -7 -7 -6
-10 -10 -9 -9 -9 -9 -9 -9 -9 -8 -8 -8 -8 -8 -8 -8 -8 -8 -8 -9 -10 -9 -7 -7 -7 -8 -9 -9 -9 -8 -8 -8 -8 -8 -8 -7 -6 -5
-10 -10 -10 -10 -10 -10 -9 -9 -9 -8 -8 -8 -8 -8 -8 -8 -8 -8 -8 -9 -10 -9 -8 -8 -8 -9 -9 -8 -8 -8 -8 -8 -8 -7 -7 -7 -6 -5
-10 -10 -10 -10 -10 -10 -9 -9 -9 -8 -8 -8 -8 -8 -8 -8 -8 -8 -8 -9 -9 -9 -8 -8 -9 -9 -9 -8 -8 -7 -8 -7 -7 -7 -7 -7 -6 -5
-10 -10 -10 -10 -10 -10 -9 -9 -9 -8 -8 -8 -8 -8 -8 -8 -8 -8 -8 -9 -9 -9 -9 -8 -8 -8 -8 -8 -8 -6 -6 -7 -7 -7 -6 -6 -6 -5
-10 -10 -10 -10 -10 -9 -9 -9 -8 -8 -8 -8 -8 -8 -8 -8 -8 -8 -8 -8 -9 -9 -9 -8 -8 -8 -8 -8 -8 -7 -6 -6 -6 -6 -6 -6 -5 -5
-10 -10 -10 -10 -9 -9 -9 -8 -8 -8 -8 -8 -8 -8 -8 -8 -8 -8 -8 -8 -8 -8 -8 -8 -8 -8 -8 -8 -8 -7 -7 -6 -5 -5 -5 -5 -5 -5
-10 -10 -10 -9 -9 -9 -8 -8 -8 -8 -8 -8 -8 -8 -8 -8 -8 -8 -8 -8 -8 -8 -8 -8 -7 -7 -7 -7 -7 -7 -7 -6 -6 -5 -5 -5 -5 -5
Wind_Speed
2 1 1 2 1 1 2 2 3 5 5 5 4 6 14 15 18 18 17 25 29 31 31 32 32 32 32 32 32 32 32 32 31 31 32 32 32 33
2 1 1 2 2 2 2 3 4 6 9 4 6 8 10 16 22 21 21 29 29 31 32 32 32 33 33 33 33 33 33 32 32 32 32 32 32 32
1 2 3 2 2 2 3 4 5 6 12 10 6 7 9 10 13 17 21 20 22 29 31 32 32 32 33 33 33 33 33 33 33 33 32 32 32 32
2 2 3 3 3 3 4 5 5 6 9 14 8 7 10 10 11 11 15 20 19 27 30 30 31 32 33 33 34 34 34 33 33 32 32 32 32 32
3 3 4 3 4 4 5 5 5 8 7 11 12 8 8 10 12 13 14 10 18 23 26 27 30 32 34 34 34 33 33 33 32 31 31 31 31 31
4 4 4 5 5 5 5 6 7 7 7 9 11 11 10 10 10 11 12 8 11 15 21 26 29 31 32 33 34 33 33 32 31 30 30 30 30 31
5 5 5 7 10 9 8 6 7 7 7 9 12 13 11 10 10 9 14 11 11 12 12 13 14 13 16 26 29 30 31 31 31 31 31 31 31 31
7 6 6 7 11 15 16 16 15 12 10 11 13 14 14 12 10 11 12 15 16 6 9 14 13 14 13 10 25 31 31 32 32 31 31 31 31 31
7 6 6 7 11 6 11 16 15 20 22 16 16 15 15 13 11 12 13 16 18 12 12 18 14 15 13 17 29 32 33 33 32 31 30 29 29 30
7 6 6 6 8 11 8 7 8 11 17 14 13 14 13 11 12 16 18 15 14 11 10 16 15 16 17 12 26 31 32 31 29 29 30 30 31 31
7 7 8 7 15 18 10 9 11 11 18 22 24 23 28 29 23 14 11 13 17 14 8 9 14 15 15 15 18 26 26 27 30 31 32 31 31 30
6 7 13 14 18 19 12 11 14 12 12 14 16 19 16 18 23 13 9 13 16 12 5 4 8 11 10 7 7 9 15 25 29 30 31 31 30 20
6 6 7 18 20 22 21 12 16 17 11 10 11 12 10 9 10 10 10 11 15 15 10 8 12 11 11 12 11 10 12 13 15 19 25 29 29 24
6 6 8 20 23 24 18 18 22 19 9 9 10 11 11 11 11 12 14 14 14 18 18 16 15 15 16 18 16 11 10 11 13 15 14 21 24 27
8 15 19 22 21 15 17 20 17 9 8 9 11 11 10 10 12 12 13 13 15 16 14 15 16 15 15 17 17 18 18 15 13 11 11 13 15 15
8 13 19 20 16 15 14 12 8 8 10 10 11 12 11 11 12 12 13 13 13 15 11 12 14 16 16 16 17 19 17 13 13 14 15 16 15 14
11 6 6 7 6 7 7 7 7 9 10 10 11 12 13 12 13 11 11 12 13 15 16 12 10 12 15 17 18 18 17 16 15 14 15 18 16 14
12 6 6 7 8 10 11 11 11 11 11 11 11 12 12 13 13 12 11 12 14 14 15 15 14 15 13 11 17 17 15 15 15 15 15 17 18 14
7 5 6 7 8 9 10 11 12 11 11 11 12 12 12 12 13 13 13 13 13 14 14 14 13 14 16 18 9 11 13 16 16 15 14 15 17 16
5 6 7 8 9 9 10 11 12 12 11 11 12 12 12 12 13 13 13 14 15 15 15 13 12 13 14 17 17 17 14 14 15 17 16 14 13 17
6 7 7 8 9 10 10 11 12 12 13 12 12 13 12 12 13 13 14 19 17 14 15 15 14 20 15 12 13 13 11 13 16 17 17 15 14 11
7 8 9 9 10 10 11 11 11 12 13 12 12 13 12 12 14 15 14 15 14 14 15 14 14 13 11 14 16 16 16 16 16 19 19 16 12 9
8 9 9 10 10 10 10 11 12 13 12 13 13 13 13 13 13 13 14 14 14 14 14 14 13 12 12 13 14 15 17 17 14 14 12 16 20 20
Wind_Direction
157 136 224 265 279 284 286 270 268 290 294 280 294 333 331 319 314 312 308 307 303 302 303 302 301 300 299 298 297 295 293 291 288 286 283 281 278 276
144 144 269 274 292 290 281 275 263 274 285 283 301 302 309 311 308 310 306 304 302 301 299 299 299 298 298 297 297 296 294 291 289 287 284 282 280 278
229 227 253 269 275 280 290 286 276 273 283 288 282 293 300 298 298 296 297 293 293 297 298 298 297 298 299 298 297 295 293 291 289 288 286 284 282 280
277 288 283 286 287 286 281 275 276 276 285 295 297 296 293 293 293 292 299 297 294 296 298 299 300 300 300 298 296 294 293 292 290 289 287 285 283 282
279 272 272 279 282 279 282 284 285 291 288 297 300 297 294 294 295 294 291 289 295 299 301 301 299 298 297 297 298 298 296 295 292 290 287 285 283 280
298 283 271 262 261 265 277 273 278 282 286 291 295 296 292 288 288 296 298 288 293 300 298 295 294 296 296 297 297 296 295 293 290 288 286 284 282 279
311 296 285 287 288 286 283 270 281 283 286 290 293 295 295 297 297 297 300 300 293 290 288 287 290 289 290 292 293 292 291 290 290 289 288 285 283 279
307 301 301 297 295 301 303 304 301 299 298 293 294 294 296 294 294 295 298 301 299 272 284 294 292 289 287 281 289 292 294 294 294 292 291 288 284 281
292 293 297 298 307 303 296 298 297 298 298 295 294 293 293 292 289 290 288 288 289 291 295 294 290 288 287 289 294 295 295 295 294 292 289 287 284 282
293 290 289 289 292 297 284 289 282 290 291 291 285 284 287 287 281 287 289 289 285 283 277 286 291 290 292 288 291 291 292 292 293 294 294 292 289 285
310 318 316 298 302 307 311 302 295 291 297 296 296 297 298 299 299 299 296 296 295 292 278 277 288 295 294 289 285 287 290 294 296 295 293 291 290 289
313 311 312 310 310 314 311 301 300 298 294 295 297 296 293 292 298 296 293 294 294 295 277 271 292 306 300 267 263 283 290 291 292 292 292 292 291 290
298 299 302 312 312 311 309 301 298 302 299 298 298 295 294 292 293 289 288 289 290 286 289 297 292 290 285 292 291 282 281 285 290 291 291 290 289 287
304 298 301 310 311 311 311 306 306 310 304 299 296 296 296 297 296 295 292 287 278 278 283 284 285 287 289 289 293 293 285 283 285 286 284 286 287 285
307 310 312 313 314 310 307 311 315 310 301 297 297 295 293 293 297 297 293 288 282 277 275 272 274 278 278 281 286 291 296 295 284 277 280 283 284 284
302 305 313 313 312 313 315 315 309 299 303 299 299 297 298 298 298 298 299 301 298 295 280 260 262 269 277 278 282 287 288 285 286 289 289 288 285 279
309 305 306 307 309 315 311 307 306 307 307 301 299 299 300 299 297 297 295 298 295 298 302 300 276 267 267 274 281 281 283 285 285 290 294 294 289 281
320 312 310 313 316 315 315 313 310 308 305 303 300 298 299 299 300 299 297 296 296 297 298 301 304 303 295 269 246 266 278 286 291 292 289 291 292 289
333 318 312 311 309 309 307 305 304 303 303 301 299 299 299 299 299 299 300 299 297 297 297 298 300 304 308 311 284 239 274 293 296 295 291 289 291 292
318 309 308 307 306 305 304 304 303 304 304 302 300 299 298 298 299 298 299 299 300 301 302 301 300 302 304 303 302 300 286 286 298 301 301 296 288 283
312 308 305 303 302 301 301 300 300 301 302 302 300 299 299 299 298 297 299 300 303 302 303 305 302 304 302 298 298 301 300 289 290 298 304 303 303 298
312 309 305 300 300 299 299 299 301 300 301 300 298 298 298 297 297 298 300 302 302 301 303 304 305 309 309 309 308 309 311 312 306 300 295 293 303 308
309 306 302 300 299 299 299 299 298 298 298 297 297 297 298 299 298 298 298 300 302 307 312 314 316 316 315 312 313 313 313 318 320 322 316 312 316 316
Height
1489 1488 1488 1487 1485 1484 1482 1479 1476 1468 1462 1460 1460 1459 1457 1454 1450 1446 1441 1437 1434 1430 1426 1422 1418 1415 1411 1408 1404 1401 1398 1396 1393 1391 1390 1388 1387 1386
1485 1484 1483 1482 1480 1478 1476 1474 1471 1467 1460 1454 1454 1453 1449 1446 1443 1438 1433 1429 1425 1421 1417 1414 1410 1406 1402 1399 1395 1391 1388 1385 1383 1381 1379 1377 1376 1375
1480 1479 1478 1476 1474 1472 1470 1468 1465 1462 1455 1448 1448 1445 1442 1438 1433 1430 1425 1421 1417 1413 1410 1406 1402 1398 1394 1390 1385 1382 1378 1375 1373 1370 1368 1367 1365 1364
1476 1474 1473 1471 1469 1467 1464 1461 1459 1456 1451 1443 1440 1437 1434 1430 1425 1421 1418 1414 1409 1405 1402 1398 1394 1389 1385 1380 1376 1373 1369 1365 1362 1360 1357 1355 1353 1352
1471 1469 1467 1465 1463 1461 1458 1455 1453 1449 1446 1440 1433 1430 1426 1423 1418 1413 1410 1406 1402 1397 1393 1389 1384 1379 1375 1371 1367 1363 1359 1355 1352 1349 1346 1344 1342 1340
1466 1464 1462 1460 1457 1455 1452 1449 1446 1443 1439 1434 1428 1423 1419 1416 1412 1407 1400 1397 1393 1388 1384 1379 1374 1370 1365 1361 1357 1352 1348 1344 1341 1338 1336 1334 1332 1330
1461 1459 1457 1455 1452 1450 1447 1444 1441 1437 1433 1428 1422 1417 1412 1409 1406 1401 1395 1388 1383 1380 1373 1369 1364 1359 1354 1350 1346 1341 1338 1335 1332 1329 1326 1323 1321 1319
1456 1454 1451 1449 1446 1444 1442 1439 1436 1432 1427 1423 1417 1412 1407 1404 1399 1395 1390 1382 1373 1371 1366 1359 1356 1349 1345 1340 1336 1333 1329 1325 1322 1318 1315 1312 1309 1307
1450 1448 1445 1443 1441 1437 1434 1432 1429 1426 1423 1419 1411 1406 1401 1397 1393 1388 1383 1376 1369 1364 1360 1350 1346 1339 1335 1331 1327 1323 1319 1314 1310 1307 1304 1301 1298 1296
1445 1443 1440 1437 1435 1432 1429 1425 1421 1418 1415 1410 1406 1400 1396 1391 1387 1382 1376 1369 1361 1357 1354 1344 1336 1330 1324 1319 1316 1312 1308 1303 1300 1296 1293 1290 1287 1284
1440 1438 1435 1432 1429 1427 1423 1418 1413 1409 1406 1403 1399 1394 1390 1385 1381 1376 1369 1362 1353 1347 1345 1339 1329 1321 1312 1307 1304 1301 1297 1294 1289 1285 1281 1278 1275 1272
1435 1432 1429 1426 1424 1421 1417 1412 1406 1402 1398 1394 1390 1386 1382 1377 1373 1369 1363 1357 1348 1339 1335 1331 1323 1317 1301 1292 1292 1289 1286 1282 1278 1274 1270 1266 1263 1260
1429 1426 1423 1420 1418 1415 1411 1407 1402 1397 1393 1388 1383 1378 1374 1370 1365 1361 1356 1351 1343 1334 1329 1325 1317 1311 1305 1289 1280 1279 1276 1271 1266 1262 1259 1256 1252 1249
1425 1421 1418 1416 1413 1409 1405 1401 1397 1393 1388 1382 1377 1372 1367 1362 1357 1353 1348 1342 1336 1328 1322 1318 1312 1305 1298 1288 1277 1269 1266 1262 1257 1252 1248 1244 1240 1237
1421 1417 1414 1411 1407 1403 1400 1396 1392 1388 1382 1377 1372 1367 1362 1356 1350 1344 1338 1333 1326 1321 1315 1310 1305 1299 1293 1284 1274 1265 1257 1252 1248 1243 1239 1233 1228 1224
1416 1412 1409 1406 1402 1399 1395 1391 1387 1383 1378 1373 1367 1362 1356 1350 1344 1338 1331 1324 1317 1310 1307 1303 1297 1291 1285 1278 1270 1260 1253 1247 1239 1235 1229 1223 1217 1212
1412 1408 1404 1401 1397 1393 1389 1386 1382 1378 1373 1368 1362 1356 1350 1344 1338 1333 1326 1319 1312 1304 1297 1293 1289 1284 1277 1271 1263 1254 1246 1239 1233 1228 1221 1212 1204 1200
1408 1404 1400 1397 1393 1389 1385 1381 1377 1372 1368 1362 1357 1351 1345 1338 1332 1326 1321 1314 1307 1300 1293 1286 1280 1273 1266 1260 1256 1248 1240 1233 1225 1219 1213 1205 1194 1188
1404 1400 1397 1393 1390 1386 1381 1377 1372 1368 1363 1358 1352 1346 1340 1334 1327 1321 1315 1309 1302 1295 1289 1283 1277 1270 1262 1251 1244 1242 1235 1226 1218 1210 1204 1197 1187 1178
1401 1397 1394 1390 1387 1383 1378 1374 1368 1363 1358 1353 1347 1342 1336 1329 1323 1316 1310 1304 1298 1291 1284 1278 1273 1268 1261 1252 1240 1230 1228 1221 1212 1203 1195 1187 1179 1171
1397 1394 1391 1388 1384 1380 1375 1370 1365 1360 1354 1349 1343 1338 1332 1325 1319 1312 1307 1300 1295 1288 1281 1274 1269 1263 1256 1247 1238 1227 1220 1215 1207 1199 1189 1180 1171 1163
1395 1391 1388 1385 1381 1377 1372 1367 1362 1356 1351 1345 1339 1334 1328 1322 1315 1309 1303 1297 1291 1285 1278 1271 1264 1257 1251 1244 1235 1224 1214 1206 1200 1193 1185 1177 1170 1160
1392 1389 1385 1382 1378 1374 1369 1364 1359 1353 1348 1342 1336 1330 1324 1318 1312 1306 1301 1295 1289 1283 1276 1268 1261 1254 1247 1240 1232 1222 1213 1203 1194 1186 1179 1172 1165 1158